Вернуться в каталог

FENGYUN 1C DEB

АктивенSSO
NORAD 30092·DEBRIS·🇨🇳 China

Запущен May 10, 1999 с Taiyuan Satellite Launch Center

Loading…

Ближайшие Пролёты (ближайшие 24 часа)

TLE

СвежийSource: Space-Track

Эпоха: Sep 14, 2026, 01:37 UTC

1 30092U 99025QV  26257.06765090  .00000903  00000-0  29124-3 0  9997
2 30092  98.9245  92.7366 0082575 156.0145 327.6506 14.39880354 27020

Отслеживайте FENGYUN 1C DEB в реальном времени с AllMySat

Download on the App Store